User: anonymous
Location: Caltech
(34.1382°N, 118.1253°W)
Time: 09:18:21
(UTC-07:00)
Language:

Cosmos 1025 Rocket - Orbit

View from above orbital plane
View from above orbital plane
View from above satellite
View from above satellite

Ground track
Ground track

The orbit data is extracted from the following two-line orbital elements,

1 10974U 78067B   14107.17058433  .00000481  00000-0  51469-4 0  2651
2 10974 082.4838 184.5663 0017250 211.1247 210.2943 14.86539367935631
Epoch (UTC): 17 April 2014 04:05:38
Eccentricity: 0.0017250
inclination: 82.4838°
perigee height: 597 km
apogee height: 621 km
right ascension of ascending node: 184.5663°
argument of perigee: 211.1247°
revolutions per day: 14.86539367
mean anomaly at epoch: 210.2943°
orbit number at epoch: 93563

The dashed part of the orbit path shows where the satellite is in the earth's shadow,  

DLR